Lee's Summit, MO

12:07 PM CDT on July 21, 2017 (GMT -0500)
Lee's Summit Municipal

Weather History for KLXT - August, 2013

Change the Weather History Date:

Friday, August 23, 2013

  Actual Average (KMKC) Record (KMKC)
Temperature  
Mean Temperature 81 °F -  
Max Temperature 89 °F 86 °F 99 °F (2014)
Min Temperature 73 °F 68 °F 62 °F (2015)
Cooling Degree Days 16    
Growing Degree Days 31 (Base 50)    
Moisture  
Dew Point 67 °F    
Average Humidity 64    
Maximum Humidity 84    
Minimum Humidity 42    
Precipitation  
Precipitation 0.00 in - - ()
Sea Level Pressure  
Sea Level Pressure 30.05 in    
Wind  
Wind Speed 2 mph (SSE)    
Max Wind Speed 7 mph    
Max Gust Speed -    
Visibility 10 miles    
Events      
Averages and records for this station are not official NWS values.
T = Trace of Precipitation, MM = Missing Value Source: NWS Daily Summary

Daily Weather History Graph

Daily Weather History Graph

Search for Another Location

Airport or City:

Trip Planner

Search our weather history database for the weather conditions in past years. The results will help you decide how hot, cold, wet, or windy it might be!

Date:

Astronomy

Aug. 23, 2013 Rise Set
Actual Time 6:38 AM CDT 8:00 PM CDT
Civil Twilight 6:10 AM CDT 8:28 PM CDT
Nautical Twilight 5:37 AM CDT 9:02 PM CDT
Astronomical Twilight 5:01 AM CDT 9:37 PM CDT
Moon 9:22 PM CDT (8/23) 9:32 AM CDT (8/23)
Length of Visible Light 14h 18m
Length of Day
13h 22m
Waning Gibbous, 91% of the Moon is Illuminated
Aug 23
Waning Gibbous
Aug 28
Last Quarter
Sep 5
New
Sep 12
First Quarter
Sep 19
Full

Hourly Weather History & Observations

Time (CDT) Temp. Heat Index Dew Point Humidity Pressure Visibility Wind Dir Wind Speed Gust Speed Precip Events Conditions
12:53 AM 75.9 °F - 68.0 °F 76% 30.05 in 10.0 mi South 3.5 mph - N/A   Clear
1:53 AM 75.0 °F - 68.0 °F 79% 30.05 in 10.0 mi Calm Calm - N/A   Clear
2:53 AM 75.0 °F - 68.0 °F 79% 30.05 in 10.0 mi Calm Calm - N/A   Clear
3:53 AM 75.0 °F - 68.0 °F 79% 30.06 in 10.0 mi South 3.5 mph - N/A   Clear
4:53 AM 73.9 °F - 68.0 °F 82% 30.06 in 10.0 mi Calm Calm - N/A   Clear
5:53 AM 75.0 °F - 66.9 °F 76% 30.06 in 10.0 mi Calm Calm - N/A   Clear
6:53 AM 73.0 °F - 66.9 °F 81% 30.07 in 10.0 mi Calm Calm - N/A   Clear
7:53 AM 75.0 °F - 70.0 °F 84% 30.07 in 9.0 mi Calm Calm - N/A   Clear
8:53 AM 78.1 °F - 71.1 °F 79% 30.09 in 10.0 mi Calm Calm - N/A   Clear
9:53 AM 82.9 °F 86.5 °F 69.1 °F 63% 30.09 in 10.0 mi Calm Calm - N/A   Clear
10:53 AM 84.9 °F 88.2 °F 68.0 °F 57% 30.09 in 10.0 mi Calm Calm - N/A   Clear
11:53 AM 86.0 °F 89.4 °F 68.0 °F 55% 30.08 in 10.0 mi SSE 4.6 mph - N/A   Clear
12:53 PM 88.0 °F 91.4 °F 68.0 °F 51% 30.07 in 10.0 mi Variable 5.8 mph - N/A   Clear
1:53 PM 88.0 °F 90.3 °F 66.0 °F 48% 30.06 in 10.0 mi SSE 5.8 mph - N/A   Clear
2:53 PM 88.0 °F 89.6 °F 64.9 °F 46% 30.04 in 10.0 mi South 6.9 mph - N/A   Clear
3:53 PM 89.1 °F 90.0 °F 63.0 °F 42% 30.02 in 10.0 mi SSE 6.9 mph - N/A   Clear
4:53 PM 88.0 °F 88.4 °F 62.1 °F 42% 30.02 in 10.0 mi South 6.9 mph - N/A   Clear
5:53 PM 87.1 °F 88.9 °F 64.9 °F 48% 30.01 in 10.0 mi SSE 4.6 mph - N/A   Clear
6:53 PM 84.9 °F 86.1 °F 64.0 °F 49% 30.01 in 10.0 mi SSE 3.5 mph - N/A   Clear
7:53 PM 82.9 °F 84.6 °F 64.9 °F 54% 30.02 in 10.0 mi SSE 3.5 mph - N/A   Clear
8:53 PM 82.0 °F 84.1 °F 66.0 °F 58% 30.02 in 10.0 mi SSE 3.5 mph - N/A   Clear
9:53 PM 80.1 °F 82.1 °F 66.0 °F 62% 30.03 in 10.0 mi SSE 3.5 mph - N/A   Clear
10:53 PM 75.9 °F - 66.0 °F 71% 30.04 in 10.0 mi SE 3.5 mph - N/A   Clear
11:53 PM 75.9 °F - 66.9 °F 74% 30.04 in 10.0 mi SE 5.8 mph - N/A   Clear